TimeCDT,TemperatureF,Dew PointF,Humidity,Sea Level PressureIn,VisibilityMPH,Wind Direction,Wind SpeedMPH,Gust SpeedMPH,PrecipitationIn,Events,Conditions,WindDirDegrees,DateUTC
12:51 AM,70.0,69.1,97,29.98,7.0,SE,15.0,21.9,N/A,,Clear,130,2013-04-10 05:51:00
1:51 AM,69.1,68.0,96,29.96,6.0,SE,10.4,-,N/A,,Scattered Clouds,130,2013-04-10 06:51:00
2:41 AM,71.6,69.8,94,29.94,7.0,SE,11.5,20.7,N/A,,Scattered Clouds,130,2013-04-10 07:41:00
2:51 AM,70.0,69.1,97,29.94,7.0,SE,13.8,-,N/A,,Partly Cloudy,130,2013-04-10 07:51:00
3:51 AM,70.0,69.1,97,29.93,7.0,SE,12.7,19.6,N/A,,Clear,130,2013-04-10 08:51:00
4:51 AM,69.1,68.0,96,29.91,7.0,SE,11.5,-,N/A,,Clear,130,2013-04-10 09:51:00
5:51 AM,68.0,66.9,96,29.92,6.0,ESE,6.9,-,N/A,,Clear,120,2013-04-10 10:51:00
6:30 AM,68.0,68.0,100,29.93,5.0,SE,6.9,-,N/A,,Partly Cloudy,130,2013-04-10 11:30:00
6:51 AM,69.1,68.0,96,29.94,4.0,SE,9.2,-,N/A,,Scattered Clouds,140,2013-04-10 11:51:00
7:08 AM,69.8,69.8,100,29.94,5.0,SE,11.5,-,N/A,,Mostly Cloudy,140,2013-04-10 12:08:00
7:39 AM,71.6,69.8,94,29.94,6.0,SE,12.7,19.6,N/A,,Mostly Cloudy,130,2013-04-10 12:39:00
7:51 AM,71.1,70.0,96,29.95,6.0,SE,12.7,19.6,N/A,,Overcast,130,2013-04-10 12:51:00
8:02 AM,71.6,69.8,94,29.95,6.0,SE,11.5,19.6,N/A,,Overcast,130,2013-04-10 13:02:00
8:10 AM,71.6,69.8,94,29.96,6.0,SE,11.5,18.4,N/A,,Overcast,140,2013-04-10 13:10:00
8:38 AM,73.4,71.6,94,29.96,6.0,SSE,16.1,21.9,N/A,,Mostly Cloudy,150,2013-04-10 13:38:00
8:51 AM,73.0,71.1,93,29.96,7.0,SE,17.3,23.0,N/A,,Partly Cloudy,140,2013-04-10 13:51:00
9:51 AM,75.0,70.0,84,29.97,9.0,SE,12.7,20.7,N/A,,Clear,130,2013-04-10 14:51:00
10:51 AM,77.0,70.0,79,29.98,9.0,SE,21.9,29.9,N/A,,Clear,140,2013-04-10 15:51:00
11:51 AM,77.0,70.0,79,29.99,10.0,SE,17.3,25.3,N/A,,Clear,130,2013-04-10 16:51:00
12:51 PM,79.0,70.0,74,29.97,10.0,SE,15.0,23.0,N/A,,Partly Cloudy,140,2013-04-10 17:51:00
1:51 PM,78.1,70.0,76,29.95,10.0,SE,15.0,24.2,N/A,,Clear,140,2013-04-10 18:51:00
2:51 PM,78.1,69.1,74,29.94,10.0,SE,17.3,27.6,N/A,,Partly Cloudy,130,2013-04-10 19:51:00
3:51 PM,78.1,70.0,76,29.91,10.0,SE,18.4,29.9,N/A,,Clear,130,2013-04-10 20:51:00
4:51 PM,77.0,70.0,79,29.88,9.0,SE,17.3,28.8,N/A,,Clear,130,2013-04-10 21:51:00
5:51 PM,75.0,69.1,82,29.88,9.0,SE,16.1,24.2,N/A,,Clear,130,2013-04-10 22:51:00
6:51 PM,73.0,69.1,87,29.88,8.0,SE,13.8,-,N/A,,Clear,130,2013-04-10 23:51:00
7:51 PM,72.0,69.1,91,29.88,8.0,SE,11.5,-,N/A,,Clear,130,2013-04-11 00:51:00
8:51 PM,71.1,69.1,93,29.88,7.0,SE,11.5,-,N/A,,Clear,130,2013-04-11 01:51:00
9:51 PM,71.1,69.1,93,29.88,7.0,SE,13.8,20.7,N/A,,Clear,130,2013-04-11 02:51:00
10:51 PM,72.0,70.0,93,29.87,7.0,SE,15.0,-,N/A,,Clear,130,2013-04-11 03:51:00
11:51 PM,72.0,70.0,93,29.85,7.0,SE,13.8,-,N/A,,Clear,130,2013-04-11 04:51:00